CST,Max TemperatureF,Mean TemperatureF,Min TemperatureF,Max Dew PointF,MeanDew PointF,Min DewpointF,Max Humidity, Mean Humidity, Min Humidity, Max Sea Level PressureIn, Mean Sea Level PressureIn, Min Sea Level PressureIn, Max VisibilityMiles, Mean VisibilityMiles, Min VisibilityMiles, Max Wind SpeedMPH, Mean Wind SpeedMPH, Max Gust SpeedMPH,PrecipitationIn, CloudCover, Events, WindDirDegrees
2014-2-1,13,-1,-15,2,-6,-21,88,73,56,30.04,29.94,29.87,10,10,7,8,3,,0.00,4,Snow,249
2014-2-2,7,-4,-14,1,-8,-19,85,74,54,30.19,30.14,30.05,10,10,10,10,5,,0.00,1,Snow,269
2014-2-3,14,-4,-21,5,-6,-27,88,77,65,30.25,30.18,30.13,10,10,4,10,4,,0.00,0,,207
2014-2-4,16,4,-9,6,-1,-14,87,67,53,30.36,30.29,30.25,10,8,3,10,2,,0.00,0,,358
2014-2-5,7,2,-4,0,-2,-8,86,77,66,30.33,30.30,30.25,10,10,5,12,8,,0.00,5,Snow,328
2014-2-6,0,-6,-13,-8,-13,-18,84,75,66,30.29,30.19,30.10,10,10,7,13,8,21,0.00,1,Snow,255
2014-2-7,8,0,-9,-7,-10,-14,82,68,47,30.11,30.07,30.04,10,10,7,15,9,21,0.00,1,Snow,241
2014-2-8,10,-6,-21,4,-6,-27,85,76,63,30.10,30.07,30.03,10,10,7,7,3,,0.00,4,,212
2014-2-9,9,-1,-12,1,-6,-18,87,71,53,30.21,30.10,30.03,10,9,4,14,6,21,0.00,2,Snow,293
2014-2-10,3,-7,-17,-10,-15,-23,82,70,53,30.35,30.28,30.21,10,10,7,12,6,,0.00,0,,282
2014-2-11,7,-8,-24,-4,-14,-30,80,66,54,30.36,30.26,30.08,10,10,7,18,4,20,0.00,0,,173
2014-2-12,16,8,0,10,4,-4,91,80,63,30.09,30.00,29.84,10,6,1,15,8,20,0.03,6,Snow,200
2014-2-13,23,15,7,21,15,4,94,88,77,29.83,29.54,29.37,10,4,0,18,9,23,0.00,6,Snow,185
2014-2-14,16,6,-6,9,2,-10,87,74,59,29.92,29.74,29.55,10,8,3,18,11,25,0.00,3,Snow,323
2014-2-15,16,0,-16,12,-3,-22,91,77,59,29.94,29.89,29.83,10,8,1,10,2,,0.01,4,Snow,148
2014-2-16,17,8,0,10,3,-4,90,73,56,30.17,30.09,29.90,10,10,4,14,5,21,0.01,1,Snow,81
2014-2-17,21,16,11,18,14,6,94,87,77,30.13,29.81,29.66,10,4,0,18,10,29,0.03,8,Fog-Snow,142
2014-2-18,33,23,13,25,21,11,93,83,69,29.76,29.62,29.53,10,6,0,15,6,,0.00,4,Fog,193
2014-2-19,37,26,16,25,20,14,93,77,51,29.81,29.75,29.63,10,10,7,10,7,,0.00,1,,227
2014-2-20,34,31,28,32,26,19,98,81,64,29.78,29.44,28.91,10,6,0,22,9,31,0.47,7,Rain-Snow,106
2014-2-21,30,20,8,30,10,4,96,83,76,29.58,29.27,28.91,7,2,1,24,15,34,0.00,8,Snow,260
2014-2-22,13,8,3,5,2,-2,82,75,66,29.94,29.78,29.59,10,8,3,22,16,29,0.00,4,Snow,265
2014-2-23,13,6,-1,3,-1,-6,83,72,61,30.06,30.01,29.94,10,10,5,22,14,31,0.00,1,,272
2014-2-24,12,5,-2,0,-3,-6,84,71,57,30.15,30.11,30.06,10,10,10,14,11,22,0.00,1,,282
2014-2-25,4,-2,-7,-2,-9,-15,92,68,55,30.13,30.09,30.05,10,10,5,17,10,23,0.00,3,Snow,278
2014-2-26,8,-4,-16,5,-11,-23,85,69,54,30.10,29.75,29.46,10,7,0,23,11,36,0.00,5,Snow,260
2014-2-27,-2,-12,-24,-15,-22,-30,75,57,33,30.05,29.95,29.65,10,9,2,20,12,30,0.00,0,Snow,280
2014-2-28,6,-10,-27,3,-12,-33,86,71,49,30.03,29.95,29.85,10,8,0,12,4,16,0.01,5,Snow,167